Wetbulb
43.87 38.90 35.37 38.59 39.56 40.76 39.74 36.99 35.27 37.23 40.91 38.50 36.36 36.54 39.27 41.52 42.20 43.13 44.26 44.19 44.68 58.26 61.50 62.55 63.14 63.98 60.86 61.37 62.03 61.36 64.25 65.73 67.57 66.93 65.48 64.26 64.37 65.89 66.82 67.05 67.94 67.00 66.37 67.33
40.57 36.81 41.97 43.94 43.08 41.27 40.10 37.38 34.70 38.66 41.37 37.60 37.15 37.17 39.68 40.39 40.85 42.66 44.90 45.12 44.47 45.19 52.80 61.37 62.37 61.46 58.69 60.47 61.30 62.21 63.08 64.05 66.74 67.10 63.87 63.54 63.21 64.25 65.06 65.09 66.02 66.18 65.71 65.07
39.32 41.79 45.79 43.44 41.73 39.85 39.08 36.86 35.45 36.18 39.82 39.37 37.44 35.82 37.50 41.34 41.13 42.69 43.52 45.23 46.05 45.29 47.20 58.23 59.12 58.00 59.00 59.06 59.96 61.97 62.47 63.23 64.56 63.54 61.20 61.01 62.13 61.04 61.34 61.40 63.56 65.14 66.14 66.03
41.41 45.75 43.81 41.80 40.53 41.49 36.35 41.75 40.52 38.97 35.84 29.67 37.29 28.09 34.99 38.53 40.49 41.99 42.34 42.45 44.58 45.11 46.02 55.86 57.82 56.46 57.66 59.15 60.43 60.98 61.16 61.63 62.29 61.64 59.62 58.77 59.27 59.62 60.49 59.58 63.05 64.89 66.56 68.11
39.71 41.93 41.87 40.54 41.19 43.64 39.47 44.55 41.35 40.58 35.52 32.00 33.16 30.58 34.46 37.90 39.02 42.07 44.86 45.71 43.97 45.02 44.74 50.79 56.07 57.71 58.34 56.50 57.50 60.96 62.67 61.97 61.28 61.24 60.42 59.30 57.92 60.11 61.55 59.35 59.15 60.34 64.76 64.68
42.67 47.35 45.33 43.73 45.77 45.49 45.40 41.93 40.24 38.48 33.02 25.61 31.64 32.10 31.90 34.61 38.57 42.26 46.02 47.22 49.04 50.57 51.66 50.44 53.32 55.64 55.28 60.38 63.15 62.85 62.05 62.50 62.30 62.56 61.03 59.38 59.72 60.60 61.16 60.38 60.61 62.34 63.63 61.53
41.08 42.75 45.89 47.04 42.64 45.17 43.06 36.99 26.52 23.25 23.02 23.93 33.48 31.45 32.15 42.74 45.46 44.70 45.19 47.91 51.41 52.29 53.18 55.17 55.63 55.12 57.69 59.54 58.81 58.65 57.78 56.73 57.33 57.34 57.62 57.21 56.35 56.31 55.81 56.33 58.98 58.11 58.29 58.99
35.61 33.27 42.56 46.23 42.92 38.67 39.84 34.85 25.15 20.95 21.76 26.23 34.94 29.24 36.27 45.41 47.40 49.64 50.87 51.47 52.15 52.55 53.17 53.44 53.76 55.33 56.05 55.87 55.96 55.48 54.54 53.76 54.43 54.57 54.43 54.74 54.58 54.77 54.75 54.56 55.45 55.07 55.41 55.15
35.98 36.12 45.58 46.15 46.15 44.93 39.77 34.61 36.85 31.71 31.85 29.15 35.16 39.53 43.40 47.14 46.79 48.39 49.35 50.69 51.04 51.67 52.40 52.56 53.11 53.30 53.49 53.18 53.31 53.63 53.41 53.21 54.06 53.78 54.34 53.91 54.34 54.48 54.54 54.46 54.60 54.77 54.30 56.06
41.18 33.06 42.62 45.27 46.79 46.02 41.29 40.99 32.12 31.06 24.98 23.28 33.37 35.63 35.91 41.84 44.24 46.55 47.30 48.54 49.91 51.54 51.99 52.22 52.51 52.62 52.90 52.48 52.05 52.03 52.18 52.33 52.17 52.55 52.70 53.14 53.28 53.71 55.04 53.93 53.24 53.79 53.65 52.40
43.52 38.23 38.14 42.92 40.48 38.45 39.56 36.49 36.12 35.07 32.34 26.86 27.39 34.51 44.03 43.75 44.36 45.65 46.06 46.84 47.53 48.32 48.61 49.08 49.34 48.89 48.90 48.10 46.79 46.80 47.83 48.79 48.76 49.62 49.42 49.90 50.08 51.60 51.63 50.92 50.21 49.51 49.44 48.74
44.28 38.49 33.48 37.44 42.59 44.49 40.84 36.11 35.08 29.88 31.43 32.85 30.81 33.92 45.55 45.70 46.13 47.20 47.19 47.47 47.17 47.07 45.50 45.23 45.28 45.58 45.74 45.46 45.74 45.69 46.12 46.48 46.32 47.60 47.60 47.49 48.53 49.39 48.68 48.58 48.13 47.87 46.85 46.96
44.23 39.63 30.24 34.00 39.15 42.48 39.53 40.09 37.33 37.33 37.14 33.16 29.00 34.59 45.95 47.66 47.21 48.59 46.60 46.80 46.30 44.73 44.71 44.48 45.07 44.32 44.44 44.56 44.87 44.58 44.60 44.72 45.26 46.27 46.18 46.81 46.52 46.47 46.04 46.04 45.87 46.04 45.47 44.88
46.95 39.90 32.52 29.08 35.27 38.08 37.57 39.19 40.68 38.14 32.30 33.70 33.26 38.76 44.69 45.51 45.87 48.05 46.44 44.36 44.41 44.71 44.69 43.47 42.60 42.12 43.35 44.14 44.15 44.27 44.06 44.43 45.08 46.10 45.35 44.62 44.20 44.45 44.67 44.62 44.34 44.25 44.38 43.37
44.80 36.14 37.55 41.30 43.46 42.93 40.67 39.68 40.45 37.70 37.82 34.42 37.87 39.47 42.85 45.02 46.00 47.39 44.89 44.33 43.87 43.59 43.07 42.39 41.81 41.57 41.85 41.65 42.34 43.00 43.35 43.57 44.21 43.98 43.03 42.46 42.78 43.16 43.78 43.87 43.60 43.60 43.50 42.89
42.34 38.28 38.15 38.23 42.24 42.71 40.77 41.26 41.90 41.34 41.95 40.86 41.63 41.64 47.72 47.04 46.90 44.92 44.31 43.37 42.03 42.09 42.16 42.19 41.28 40.90 40.41 40.62 40.77 41.41 41.48 41.93 42.57 42.10 41.64 42.51 42.47 42.87 42.50 42.37 42.31 42.32 42.43 42.38
39.29 39.02 34.65 34.09 40.82 41.12 35.31 40.40 41.18 41.79 43.02 42.73 38.01 42.22 47.14 45.12 43.76 41.73 41.27 41.21 39.67 40.45 40.25 38.88 38.44 38.38 38.36 38.67 39.55 38.69 39.58 40.81 40.24 40.57 41.70 41.97 41.72 41.98 41.51 41.62 41.55 41.00 40.81 40.95
38.77 39.81 38.07 35.18 38.01 28.49 38.58 45.59 46.33 44.20 44.22 44.90 44.97 46.56 47.04 39.51 39.57 40.07 40.67 39.25 38.48 38.19 37.04 36.62 36.21 35.87 35.97 36.56 37.25 37.84 38.64 38.28 38.70 38.45 39.24 40.17 40.34 40.74 41.18 41.22 40.32 39.95 40.05 40.35
43.52 39.11 36.49 33.67 33.65 38.29 41.57 44.42 44.25 42.48 42.20 46.52 45.38 40.02 38.83 38.88 38.28 35.50 37.95 37.72 36.55 36.09 35.32 35.71 35.62 34.40 33.74 33.82 35.02 35.73 35.93 35.89 36.53 36.56 37.30 38.74 39.22 43.03 43.77 40.28 39.32 39.86 40.73 43.93
43.00 42.60 37.89 35.34 31.65 31.84 40.35 45.63 47.25 45.37 34.85 44.28 41.16 39.46 39.90 43.21 35.97 31.70 36.30 36.55 35.30 35.23 34.91 34.30 34.24 33.40 32.38 32.13 32.94 33.41 33.89 34.32 34.52 35.92 36.52 38.07 42.18 42.97 39.57 38.88 40.00 43.29 44.50 45.03
37.93 39.28 32.92 33.56 34.04 37.77 43.61 46.66 48.16 35.79 36.20 42.85 42.27 41.88 38.55 33.86 34.30 34.15 34.85 33.83 34.02 34.11 34.15 33.54 32.29 30.93 31.01 31.88 33.20 33.74 35.31 33.11 35.41 36.97 36.18 38.30 41.11 40.78 38.83 40.04 41.80 43.10 44.88 45.19
34.63 34.66 34.75 34.60 33.33 32.13 47.34 45.90 38.44 39.52 39.81 38.68 37.68 36.31 34.13 33.68 33.26 32.88 32.46 32.07 32.11 31.45 31.56 31.53 30.62 30.44 31.24 34.49 34.42 34.36 32.38 34.29 36.00 35.79 34.69 35.76 37.67 38.59 38.29 38.76 41.30 43.04 44.17 44.53
35.24 38.98 34.64 33.92 32.46 39.38 40.93 38.62 40.21 40.24 37.86 37.86 36.12 35.97 34.80 32.42 30.80 30.67 29.82 30.07 30.68 30.32 30.24 31.66 31.20 31.61 32.63 33.12 33.12 33.53 33.70 36.05 36.13 35.52 35.48 36.54 37.31 37.46 36.03 38.78 40.02 41.26 43.71 43.07
40.21 41.19 33.35 33.19 34.87 36.28 37.29 38.56 38.59 38.49 36.46 36.90 36.39 33.94 32.67 30.18 30.44 29.87 29.80 29.45 29.17 29.86 30.34 32.02 32.14 31.75 31.77 34.29 35.91 36.08 36.98 37.32 36.24 34.05 35.15 36.64 34.87 34.83 34.45 37.60 39.33 40.61 41.84 41.99
39.14 37.43 33.04 32.58 34.84 35.91 36.40 36.61 36.54 35.95 35.84 34.23 33.82 32.74 31.27 30.87 30.83 30.81 30.58 30.56 30.74 31.19 31.45 31.85 31.69 32.19 33.29 34.73 35.20 35.93 36.56 36.38 33.83 34.57 35.14 34.62 35.42 32.77 33.57 34.66 35.95 38.87 41.62 40.78
41.41 36.63 34.74 32.54 37.28 35.18 34.60 36.83 37.14 34.59 33.12 33.31 32.09 31.29 31.86 31.54 31.02 31.59 31.04 31.86 31.94 31.67 32.91 32.53 32.72 32.80 33.05 33.92 33.99 34.94 36.13 35.18 33.75 33.23 34.17 33.87 34.51 34.51 32.08 32.27 35.73 38.68 38.35 38.34
MSLP
1005.46 1006.07 1003.92 1004.60 1005.47 1005.85 1005.99 1005.84 1005.34 1004.79 1004.24 1004.38 1004.23 1004.09 1003.72 1002.89 1002.74 1002.98 1002.86 1003.38 1003.60 1003.67 1003.32 1003.90 1004.17 1004.85 1005.46 1005.93 1006.24 1006.42 1006.69 1006.62 1007.02 1007.68 1008.48 1009.27 1009.47 1009.57 1008.09 1008.00 1008.29 1009.39 1009.70 1010.55
1004.75 1002.29 1003.98 1004.57 1004.81 1005.18 1005.24 1005.25 1004.94 1004.63 1004.14 1004.32 1004.20 1003.76 1003.09 1002.60 1002.50 1002.34 1002.41 1002.65 1003.30 1003.33 1003.45 1003.64 1004.19 1004.63 1005.05 1005.23 1005.74 1006.29 1006.45 1006.63 1006.73 1007.20 1007.81 1008.34 1009.05 1008.89 1008.53 1008.90 1009.17 1009.57 1009.54 1010.24
1001.59 1001.36 1003.05 1003.26 1003.57 1003.92 1003.99 1004.28 1004.56 1004.65 1004.39 1004.24 1004.43 1004.09 1003.31 1002.23 1001.98 1001.78 1001.96 1002.04 1002.49 1003.06 1003.18 1003.59 1004.03 1004.13 1004.42 1004.97 1005.31 1005.76 1006.28 1006.27 1006.31 1006.77 1007.70 1008.61 1008.79 1009.44 1009.92 1009.81 1009.94 1009.84 1009.81 1010.02
1001.97 1001.27 1001.30 1001.89 1002.03 1002.53 1002.86 1003.59 1004.16 1004.53 1005.05 1005.40 1004.73 1004.94 1003.73 1002.47 1002.08 1002.00 1001.95 1002.28 1002.20 1002.75 1003.12 1003.26 1003.63 1004.09 1004.33 1004.03 1004.43 1005.20 1006.26 1007.05 1007.36 1007.58 1008.06 1008.53 1008.99 1009.50 1009.34 1009.44 1009.61 1009.58 1009.37 1009.44
999.56 1000.03 1000.62 1000.63 1000.30 1001.80 1002.06 1002.88 1003.71 1004.64 1005.36 1005.78 1005.60 1006.03 1004.05 1003.13 1002.75 1002.39 1002.28 1002.50 1002.41 1002.36 1002.63 1002.79 1003.12 1003.19 1003.58 1004.72 1005.34 1005.93 1006.73 1007.44 1007.75 1007.92 1008.24 1008.78 1009.07 1009.17 1008.78 1009.77 1009.63 1009.69 1009.58 1009.39
999.73 999.23 999.83 999.55 1000.42 1000.97 1001.97 1002.80 1003.87 1004.90 1005.94 1006.20 1005.63 1006.20 1005.14 1004.39 1004.03 1002.91 1003.01 1003.64 1004.03 1003.84 1003.53 1003.55 1003.46 1003.91 1004.31 1004.91 1005.58 1006.51 1007.25 1007.79 1007.84 1007.98 1008.51 1008.89 1009.18 1009.02 1009.14 1009.70 1009.98 1010.06 1009.90 1009.76
999.40 998.81 998.33 998.96 999.65 1000.56 1001.53 1002.72 1004.31 1005.71 1006.22 1005.46 1005.14 1006.27 1005.79 1005.49 1004.93 1004.15 1004.39 1005.15 1005.23 1004.88 1004.75 1004.70 1004.67 1005.10 1005.38 1005.96 1006.87 1007.35 1007.86 1008.72 1008.83 1009.01 1009.28 1009.76 1009.84 1009.89 1010.10 1010.30 1010.65 1010.41 1010.43 1010.35
998.93 999.03 997.70 997.51 998.21 999.24 1000.65 1002.14 1003.10 1004.07 1004.98 1005.23 1005.50 1005.85 1006.28 1006.12 1005.61 1005.25 1005.38 1005.97 1006.11 1006.13 1006.19 1006.02 1006.25 1006.55 1007.14 1007.53 1007.74 1008.10 1008.53 1009.05 1009.60 1010.14 1010.38 1010.42 1010.76 1011.17 1011.01 1010.69 1011.23 1011.43 1012.31 1011.48
998.77 998.25 997.32 997.25 997.71 998.79 1000.15 1001.19 1001.94 1003.31 1004.26 1004.93 1006.02 1006.68 1006.54 1006.50 1006.24 1006.19 1006.52 1006.72 1007.13 1007.25 1007.16 1007.15 1007.51 1007.76 1008.14 1008.56 1009.06 1009.18 1009.54 1009.98 1010.36 1010.55 1010.97 1011.38 1011.56 1011.86 1011.59 1011.36 1011.40 1012.00 1013.29 1012.95
998.84 998.39 997.19 997.00 997.60 998.37 998.69 1000.55 1002.03 1003.22 1004.21 1005.37 1006.14 1006.36 1006.78 1006.93 1006.84 1007.12 1007.58 1007.82 1008.07 1008.06 1007.88 1008.29 1008.67 1009.07 1009.41 1009.70 1010.01 1010.37 1010.56 1010.81 1010.94 1011.21 1011.45 1012.03 1012.32 1012.43 1012.51 1012.68 1012.90 1012.60 1012.98 1013.75
999.15 998.85 998.02 997.61 997.86 998.41 998.86 999.72 1000.78 1002.24 1003.97 1004.68 1006.34 1006.92 1006.82 1007.03 1007.18 1007.27 1007.84 1008.33 1008.50 1008.63 1009.01 1009.46 1009.89 1010.31 1010.84 1011.01 1011.25 1011.36 1011.64 1011.94 1012.01 1011.81 1011.97 1011.83 1011.80 1012.30 1012.75 1012.81 1013.07 1013.34 1013.41 1013.22
999.05 999.12 998.58 998.41 998.11 998.36 998.83 999.33 1000.39 1001.71 1003.83 1004.44 1005.38 1007.02 1006.80 1007.28 1007.70 1007.80 1008.21 1008.67 1009.15 1009.42 1010.00 1010.27 1010.80 1011.09 1011.52 1011.91 1012.09 1012.31 1012.36 1012.43 1012.37 1012.15 1012.14 1012.31 1012.32 1012.46 1012.82 1013.67 1013.51 1013.28 1013.22 1013.57
998.66 999.08 998.86 999.16 998.81 998.43 998.48 998.99 999.60 1000.61 1002.57 1004.01 1005.19 1007.24 1007.18 1007.55 1008.08 1008.35 1008.47 1009.03 1009.72 1010.38 1011.06 1011.39 1011.81 1012.29 1012.66 1012.75 1012.87 1012.94 1013.02 1013.24 1012.82 1012.45 1012.83 1013.18 1013.72 1013.65 1013.88 1014.10 1014.13 1014.06 1014.41 1014.31
998.59 999.05 998.88 998.58 998.17 998.10 998.19 998.47 999.03 1000.16 1002.09 1003.72 1004.75 1006.43 1007.45 1007.67 1008.40 1008.74 1009.05 1009.53 1010.25 1010.96 1012.02 1012.64 1013.04 1013.67 1014.01 1014.00 1013.80 1013.94 1013.95 1013.43 1013.14 1013.44 1013.81 1014.14 1014.35 1014.37 1014.52 1014.68 1014.81 1014.94 1014.73 1014.22
999.06 999.52 999.32 998.80 998.33 997.95 997.81 998.13 998.82 999.75 1001.08 1002.58 1004.58 1005.16 1006.22 1007.45 1008.50 1008.99 1009.53 1010.38 1010.99 1012.19 1013.02 1013.83 1014.46 1014.86 1014.93 1015.00 1014.75 1014.10 1013.94 1014.30 1014.60 1014.64 1014.60 1014.79 1014.95 1014.87 1014.83 1014.81 1014.66 1014.27 1014.15 1013.95
999.86 1000.06 999.77 999.44 998.76 998.28 998.22 998.22 998.65 999.66 1001.21 1002.37 1004.18 1005.89 1006.83 1007.89 1008.72 1009.76 1010.48 1011.41 1012.21 1013.29 1014.03 1014.73 1015.35 1015.58 1015.67 1015.30 1015.31 1015.27 1015.43 1015.60 1015.20 1015.20 1015.16 1015.24 1015.25 1015.05 1015.04 1014.84 1014.59 1014.44 1014.16 1013.57
1000.76 1000.90 1000.82 1000.87 999.77 999.48 999.65 999.73 999.43 1000.52 1001.26 1002.21 1004.17 1005.51 1007.06 1008.80 1009.70 1010.99 1011.80 1012.62 1013.79 1014.92 1015.71 1016.19 1016.57 1016.91 1016.77 1016.41 1016.37 1016.68 1016.47 1016.22 1016.03 1015.93 1015.91 1015.76 1015.54 1015.28 1015.18 1015.00 1014.81 1014.55 1014.02 1013.55
1001.60 1001.64 1001.63 1001.83 1001.68 1001.35 1000.64 1000.13 999.99 1000.80 1002.36 1002.84 1004.15 1006.27 1007.51 1009.67 1011.10 1012.42 1013.48 1013.93 1015.08 1016.10 1016.75 1017.12 1017.50 1017.55 1017.44 1017.39 1017.38 1017.44 1017.25 1016.99 1016.85 1016.76 1016.56 1016.10 1015.73 1015.45 1015.21 1015.06 1014.88 1014.53 1014.07 1013.75
1001.89 1002.17 1002.05 1002.08 1002.05 1001.83 1001.42 1000.79 1000.37 1000.76 1004.51 1005.05 1005.12 1007.29 1008.94 1010.08 1011.46 1014.36 1015.26 1015.78 1016.44 1017.33 1017.83 1018.33 1018.55 1018.94 1018.77 1018.83 1018.51 1018.00 1017.59 1017.43 1017.46 1017.36 1017.01 1016.48 1016.01 1015.55 1015.35 1015.24 1015.01 1014.59 1014.14 1013.46
1002.15 1002.12 1002.26 1002.39 1002.57 1002.28 1001.82 1001.37 1001.20 1001.81 1006.15 1006.96 1007.09 1008.19 1009.20 1010.23 1012.90 1016.11 1016.65 1017.03 1017.69 1018.35 1018.78 1018.99 1019.19 1019.50 1019.42 1019.27 1018.87 1018.29 1018.20 1018.13 1018.02 1017.69 1017.30 1016.77 1016.12 1015.84 1015.82 1015.68 1015.08 1014.48 1013.93 1013.38
1001.91 1001.89 1002.36 1002.90 1003.41 1003.22 1002.52 1002.58 1002.63 1004.03 1007.40 1007.90 1009.26 1009.99 1010.93 1012.82 1014.32 1016.37 1017.49 1018.11 1018.78 1019.02 1019.21 1019.66 1019.95 1019.71 1019.61 1019.34 1018.95 1018.76 1018.57 1018.45 1018.06 1017.61 1017.35 1016.88 1016.38 1016.10 1015.99 1015.64 1014.93 1014.30 1013.72 1013.21
1002.15 1002.43 1003.11 1003.92 1004.60 1004.82 1003.79 1003.85 1004.59 1006.60 1007.96 1009.25 1011.04 1011.82 1012.99 1014.85 1016.16 1017.23 1018.35 1018.88 1019.27 1019.51 1019.57 1019.63 1019.51 1019.76 1019.86 1019.63 1019.33 1018.99 1018.80 1018.49 1018.13 1017.84 1017.61 1017.24 1016.81 1016.55 1016.26 1015.75 1014.95 1014.35 1013.84 1013.40
1002.86 1003.11 1003.96 1005.55 1006.69 1006.07 1006.12 1006.52 1007.17 1007.74 1008.92 1011.10 1012.27 1013.61 1014.16 1015.67 1017.34 1018.52 1019.25 1019.69 1019.92 1020.10 1020.18 1020.12 1020.07 1019.93 1019.74 1019.55 1019.35 1019.22 1018.98 1018.59 1018.21 1017.97 1017.67 1017.31 1017.10 1016.84 1016.51 1015.90 1015.25 1014.62 1014.03 1013.60
1003.46 1003.48 1005.24 1006.54 1008.57 1008.03 1008.41 1009.42 1009.70 1010.32 1011.36 1012.80 1013.62 1014.74 1015.73 1016.97 1018.35 1019.25 1019.80 1020.19 1020.44 1020.56 1020.49 1020.34 1020.28 1020.35 1020.28 1020.06 1019.82 1019.63 1019.28 1018.91 1018.51 1018.20 1017.88 1017.49 1017.27 1017.04 1016.67 1016.11 1015.49 1014.91 1014.37 1014.06
1004.21 1004.82 1006.59 1008.40 1009.63 1009.50 1010.90 1011.06 1011.45 1012.71 1013.54 1014.63 1015.81 1016.63 1017.49 1018.23 1019.28 1019.82 1020.30 1020.72 1021.05 1021.16 1021.23 1021.29 1021.18 1021.11 1020.98 1020.73 1020.37 1020.07 1019.77 1019.32 1018.88 1018.52 1018.09 1017.82 1017.51 1017.27 1016.91 1016.39 1015.82 1015.40 1015.08 1014.99
1006.13 1006.72 1007.22 1008.66 1009.51 1010.26 1012.61 1013.18 1013.54 1013.96 1015.41 1016.25 1016.69 1017.97 1018.93 1019.22 1019.92 1020.64 1021.13 1021.56 1021.76 1021.85 1021.88 1021.83 1021.86 1021.49 1021.46 1021.08 1020.76 1020.36 1019.98 1019.64 1019.23 1018.74 1018.30 1017.96 1017.62 1017.39 1017.12 1016.68 1015.87 1015.61 1015.65 1015.66
Wind_Speed
15 12 24 21 17 7 6 6 5 5 7 6 6 5 11 10 6 6 8 7 8 11 16 9 11 8 6 7 8 7 8 9 9 6 5 4 5 5 2 1 4 8 3 3
10 29 16 15 15 16 15 11 5 4 5 3 7 9 10 7 6 8 10 8 10 5 6 11 10 10 9 10 7 8 10 9 9 6 2 3 3 1 2 0 3 4 2 6
24 5 18 17 20 19 17 14 6 6 4 2 2 9 5 8 5 5 7 8 5 13 12 11 9 12 11 11 12 12 9 10 10 5 5 4 4 4 2 3 3 5 9 9
17 21 24 25 22 16 20 10 8 9 2 3 4 6 7 6 6 1 8 7 10 9 7 9 11 8 11 16 11 8 4 4 5 5 6 5 4 4 4 2 1 4 6 4
15 20 21 24 24 15 12 12 10 9 5 0 2 3 9 3 4 3 4 7 8 6 10 15 15 17 11 6 5 7 8 7 6 7 5 3 1 3 2 2 2 3 4 2
17 16 21 14 17 19 7 7 7 3 5 5 6 7 8 2 5 3 4 9 10 8 8 6 3 6 8 8 8 9 10 8 4 5 5 5 2 3 4 5 2 2 3 4
20 18 17 20 16 14 15 10 3 2 4 6 10 5 3 8 8 4 8 8 9 10 11 11 12 8 9 12 11 10 12 12 11 12 12 10 9 9 8 7 5 4 5 4
13 19 17 16 16 8 18 10 7 6 6 5 7 6 2 4 3 8 12 10 10 13 10 14 13 13 14 14 15 14 15 14 12 12 11 10 9 5 5 8 5 6 5 2
8 6 16 14 8 20 11 15 10 5 1 6 6 3 4 5 10 12 13 13 11 11 12 14 14 14 13 12 11 12 13 11 9 10 9 8 7 5 6 7 7 5 5 6
4 4 8 23 18 13 10 11 7 2 4 4 1 4 6 2 7 9 11 12 11 11 14 14 13 12 12 10 9 9 10 10 9 8 7 6 6 6 6 5 6 6 6 4
5 2 3 7 7 22 9 8 5 8 3 7 5 2 4 4 4 13 10 7 7 10 11 12 12 10 9 8 9 8 9 8 7 7 6 6 7 6 7 8 7 5 4 5
8 3 3 5 5 13 6 6 7 6 4 3 5 2 1 4 3 6 10 10 8 11 10 12 12 13 12 11 10 9 8 9 6 6 7 7 8 9 9 7 5 6 7 6
12 4 5 4 4 1 5 5 6 6 4 5 7 4 3 6 5 6 13 12 13 13 13 11 11 10 9 8 8 8 8 6 6 8 9 9 7 7 6 5 5 6 4 5
9 3 4 5 7 5 5 6 11 8 5 6 3 10 8 9 9 7 8 11 14 14 12 10 9 8 7 7 8 7 7 7 9 10 8 7 7 6 5 3 2 1 2 4
3 4 1 6 7 4 4 12 10 7 9 8 9 13 16 12 8 6 12 14 16 13 12 10 8 6 7 7 7 10 11 10 6 8 8 7 5 5 5 5 5 6 6 5
5 3 1 5 7 7 5 7 13 5 7 11 18 10 9 8 7 12 14 15 15 13 12 12 10 10 9 10 10 9 9 7 6 7 7 6 6 5 5 6 6 6 6 7
4 3 4 1 4 6 4 3 6 5 2 21 8 10 17 13 14 12 15 15 14 13 11 11 10 8 8 10 8 7 6 6 8 7 7 6 5 5 5 6 6 6 7 6
4 2 2 6 6 3 2 4 6 16 8 16 22 19 20 20 19 16 12 15 14 11 10 9 7 9 9 9 9 6 6 6 6 6 6 6 6 6 5 6 6 7 5 6
2 4 3 5 3 4 6 5 2 13 10 8 26 23 22 23 22 17 13 14 14 11 8 7 7 5 6 6 6 5 6 6 6 6 7 7 6 7 7 7 7 7 5 8
7 4 1 3 6 4 2 6 17 11 6 4 16 21 24 17 8 4 8 11 12 11 8 7 7 6 6 6 5 6 6 5 5 5 7 7 7 6 6 6 7 5 7 8
5 3 4 5 4 4 6 12 4 4 8 11 11 10 7 7 7 13 10 11 9 10 10 6 4 5 5 6 6 6 6 6 8 8 7 7 8 7 6 7 6 7 7 7
3 3 3 3 4 5 2 6 4 12 11 17 13 15 22 17 16 14 12 10 10 8 10 9 7 6 5 7 7 7 7 7 8 8 6 6 6 6 6 7 6 7 6 6
3 1 5 7 2 3 13 16 14 18 18 13 16 14 19 16 13 11 9 8 9 8 6 7 7 8 9 9 7 8 8 9 9 8 7 6 7 6 5 6 6 5 6 5
5 2 8 5 9 17 19 17 16 17 20 16 16 16 16 17 11 10 8 7 7 8 9 9 9 10 9 9 9 8 9 9 8 6 6 6 5 6 6 5 4 5 6 6
3 5 9 19 15 22 17 18 20 19 19 19 17 16 16 15 12 10 10 9 8 8 7 7 7 6 7 8 8 8 9 9 7 6 6 6 5 5 5 5 3 4 6 5
6 6 4 9 10 17 13 13 16 20 17 15 18 16 12 13 14 11 8 6 5 5 5 5 6 6 8 8 8 9 9 8 7 6 5 5 5 4 4 5 5 7 9 6
Wind_Direction
183 198 207 195 200 183 217 225 210 190 239 199 243 230 255 257 240 232 224 196 210 194 217 207 207 196 174 188 200 201 185 179 164 162 158 158 186 227 211 300 199 202 167 257
167 219 200 198 197 205 228 237 213 269 264 172 278 268 257 260 231 211 224 206 199 228 219 201 187 184 191 207 213 205 198 187 189 181 150 144 149 182 21 80 206 205 155 235
200 210 190 199 198 201 212 215 166 199 12 278 0 306 296 274 220 214 244 242 198 184 202 213 189 193 188 196 203 211 208 188 191 157 89 47 55 34 342 250 235 237 238 244
222 233 186 192 212 190 213 175 192 233 119 215 115 272 304 260 230 206 249 245 244 177 189 207 198 191 194 214 208 193 148 94 88 111 102 114 148 174 207 197 192 230 219 240
199 182 209 203 201 200 209 177 194 222 174 325 244 46 270 301 115 205 251 270 278 288 182 188 194 201 199 107 97 75 86 99 116 115 140 149 225 270 119 117 303 333 292 315
207 182 204 210 203 200 136 159 199 165 114 241 204 155 281 356 313 202 84 32 23 6 26 78 193 133 111 104 98 89 81 46 79 108 132 133 22 15 25 9 139 3 24 36
196 217 192 187 187 190 177 153 172 195 192 211 157 147 237 308 303 310 98 53 27 30 41 52 65 75 92 91 88 88 91 70 58 59 58 63 65 64 58 47 39 62 68 36
193 206 207 186 201 168 190 152 162 169 152 160 141 199 247 309 360 67 80 83 62 61 62 65 66 78 79 84 90 91 85 81 70 70 69 67 56 45 69 73 67 35 352 15
156 243 191 212 187 169 185 197 199 68 288 107 145 114 106 48 51 61 71 74 70 73 73 75 75 77 82 76 75 90 92 89 89 85 74 61 70 52 44 53 76 60 356 342
174 161 229 203 215 236 165 166 174 114 177 125 156 127 148 100 90 87 83 88 86 84 79 77 76 73 74 72 68 69 80 91 95 96 94 95 88 60 47 58 47 77 55 1
198 143 226 185 154 206 202 184 162 133 145 147 132 188 167 169 153 129 121 101 100 91 81 83 83 76 73 70 64 61 60 72 68 73 84 91 83 78 70 62 54 44 47 25
188 164 129 156 110 172 144 198 156 151 212 54 116 235 96 153 132 135 121 117 105 94 84 91 83 84 81 76 70 68 68 68 65 69 63 55 65 61 62 46 39 30 30 1
171 212 97 85 74 119 149 187 134 112 107 173 117 188 153 134 139 116 123 121 107 96 91 87 85 83 84 83 76 65 49 56 60 62 61 53 57 71 68 55 35 35 360 334
134 94 142 152 149 146 155 153 172 133 116 152 148 143 171 178 159 127 119 113 110 108 96 83 69 63 66 71 67 71 62 48 50 62 65 65 56 59 56 56 52 262 298 344
97 127 99 100 84 136 150 148 152 133 147 132 173 154 181 156 148 131 124 113 106 99 94 87 74 63 60 66 58 47 43 34 39 67 65 57 52 45 43 24 357 357 353 332
360 89 58 32 41 43 71 165 156 111 114 78 118 87 127 113 114 118 113 109 102 98 89 80 69 60 48 46 45 42 38 33 46 52 46 32 25 32 19 5 355 347 332 332
53 51 74 290 16 360 82 334 106 98 141 138 145 156 128 117 90 95 99 96 90 83 80 74 66 58 48 41 42 32 25 28 34 29 16 13 6 12 2 354 347 334 325 323
131 95 83 135 88 178 310 255 118 92 80 104 112 130 120 105 87 77 74 93 89 82 74 66 57 43 35 24 24 23 35 31 25 17 358 353 350 341 341 353 340 324 315 315
113 114 107 136 113 99 90 147 121 117 57 121 122 115 117 112 91 59 65 76 83 79 66 70 66 50 44 26 360 23 31 25 14 360 344 339 331 340 355 343 325 312 300 312
158 239 200 106 108 184 126 111 117 88 67 138 121 136 143 147 117 117 86 80 77 74 72 67 53 46 40 6 357 34 32 18 355 346 333 324 331 350 346 323 306 297 300 305
161 175 101 89 96 51 149 136 296 108 164 123 134 130 88 80 86 113 100 79 74 64 59 68 67 58 29 354 4 23 20 9 348 345 337 338 346 346 340 320 309 309 314 319
117 108 89 89 99 132 16 332 155 132 91 100 88 102 101 101 95 93 85 75 62 50 39 32 31 37 13 14 10 9 5 343 347 345 330 327 339 344 332 317 315 319 318 327
54 349 97 48 36 33 63 89 86 103 108 107 110 106 110 101 94 93 86 68 57 50 35 28 28 22 21 11 5 355 343 343 339 341 338 333 346 336 325 315 319 325 328 352
73 40 96 90 45 82 93 79 78 86 95 98 94 95 91 96 90 87 78 66 58 46 33 27 26 18 11 1 355 342 335 332 334 329 338 342 342 341 326 324 330 340 358 360
32 87 99 96 101 84 67 84 96 88 88 91 86 93 100 104 92 86 76 64 52 46 34 28 21 5 3 356 354 351 344 339 346 345 350 349 340 341 328 331 314 351 23 42
3 128 112 114 88 106 102 96 96 98 96 96 100 92 84 94 101 98 87 84 72 48 25 25 6 9 356 354 351 349 342 353 351 354 354 357 346 1 344 336 347 21 24 89